Hourly Data Report for November 06, 2019

All times are specified in Local Standard Time (LST). Add 1 hour to adjust for Daylight Saving Time where and when it is observed.

SAINT JOHN A
NEW BRUNSWICK
Current Station Operator: NAVCAN

45°18'58.000" N
65°53'24.000" W
108.80 m
8104901
71609
YSJ

Download Data

Hourly Data (November 2019)
Hourly Data Report for November 6, 2019
TIME Temp Definition
°C
Dew Point Definition
°C
Rel Hum Definition
%
Wind Dir Definition
10's deg

Wind Spd Definition
km/h
Visibility Definition
km
Stn Press Definition
kPa
Hmdx Definition


Wind Chill Definition


Weather Definition


00:00 11.9 11.7 98 21 15 3.2 100.21     Rain,Fog
01:00 12.2 11.9 98 23 18 3.2 100.09     Fog
02:00 12.0 11.9 99 24 11 3.2 100.02     Fog
03:00 11.7 11.4 98 29 16 6.4 99.98     Fog
04:00 10.0 8.8 92 30 14 24.1 100.06     LegendNANA
05:00 8.6 7.2 91 30 12 24.1 100.10     Mostly Cloudy
06:00 7.4 6.2 92 32 10 24.1 100.12     LegendNANA
07:00 7.2 5.1 86 29 19 24.1 100.23     LegendNANA
08:00 6.3 4.3 87 29 22 24.1 100.38     Mostly Cloudy
09:00 5.9 2.8 81 29 16 24.1 100.44     LegendNANA
10:00 6.6 1.2 68 27 18 24.1 100.48     LegendNANA
11:00 6.9 -0.9 58 28 28 24.1 100.53     Mainly Clear
12:00
13:00 7.0 -4.1 45 28 28 24.1 100.52     LegendNANA
14:00 7.7 -4.0 43 27 28 24.1 100.52     Mostly Cloudy
15:00 8.0 -3.6 43 27 28 24.1 LegendMM     LegendNANA
16:00 6.8 -4.1 46 27 25 24.1 100.66     LegendNANA
17:00 5.3 -2.1 59 28 24 24.1 100.77     Mainly Clear
18:00 4.0 -3.2 59 28 20 24.1 100.93     LegendNANA
19:00 3.1 -5.5 53 28 18 24.1 101.01     LegendNANA
20:00 2.6 -6.5 51 29 17 24.1 101.10     Clear
21:00 1.9 -5.8 57 27 16 24.1 101.14     LegendNANA
22:00 1.3 -6.2 57 30 17 24.1 101.19     LegendNANA
23:00 0.8 -7.1 55 30 13 24.1 101.22     Clear

Notes on Data Quality.

Legend

  • E = Estimated
  • M = Missing
  • NA = Not Available
Date modified: